[[[{"header":{"parameterUnit":"kt","parameterCategory":2,"dx":1,"dy":1,"la1":30.253999710083008,"la2":30.299108505249023,"lo1":-89.0895004272461,"lo2":-89.04439544677734,"nx":28,"ny":28,"refTime":"2022-10-19T21:00:00:Z","depth":"0","parameterNumber":2,"parameterNumberName":"U-component_of_CURRENTS"},"data":[0.1714,0.1737,0.1794,0.183,0.1856,0.1856,0.1868,0.191,0.1999,0.2182,0.2386,0.2533,0.3097,0.3902,0.4385,0.4425,0.4348,0.4439,0.4358,0.4111,0.4042,0.3976,0.4012,0.4633,0.4634,0.4547,0.4548,0.4549,0.1754,0.1773,0.1858,0.189,0.191,0.1929,0.1964,0.1974,0.2033,0.2177,0.2282,0.2658,0.3005,0.3303,0.3741,0.3949,0.3819,0.4015,0.3822,0.3772,0.3479,0.3512,0.4037,0.4037,0.4037,0.4036,0.4036,0.4036,0.1776,0.1824,0.1851,0.1904,0.1931,0.1943,0.1968,0.2012,0.2091,0.2198,0.23,0.2448,0.2761,0.3006,0.31,0.3403,0.3163,0.3332,0.3355,0.3232,0.3281,0.3079,0.3378,0.3376,0.3375,0.3373,0.3372,0,0.1729,0.1756,0.182,0.187,0.1898,0.195,0.1991,0.2031,0.2138,0.222,0.2323,0.2386,0.2561,0.2669,0.2836,0.2804,0.2717,0.2711,0.2781,0.2836,0.2882,0.2878,0.2392,0.2614,0.2607,0.2603,0.26,0.2597,0.1689,0.1691,0.1796,0.1819,0.1877,0.193,0.1977,0.2069,0.2113,0.2247,0.2253,0.234,0.2384,0.2426,0.241,0.2429,0.2312,0.2561,0.235,0.2564,0.2599,0.2502,0.2502,0.253,0.2539,0.2546,0.2551,0,0.1687,0.171,0.1763,0.1868,0.1885,0.1938,0.2031,0.2073,0.2165,0.2208,0.2218,0.224,0.2247,0.2159,0.1997,0.1944,0.2002,0.1923,0.2146,0.2173,0.2435,0.2471,0.2655,0.2687,0.2174,0.2182,0.2188,0,0.176,0.1762,0.185,0.1858,0.1927,0.1967,0.2036,0.2124,0.2168,0.2187,0.2164,0.2145,0.1928,0.189,0.1751,0.1755,0.1626,0.1627,0.1631,0.1704,0.1737,0.1761,0.1789,0.1276,0.1274,0.1272,0.1271,0,0.188,0.1872,0.1898,0.1891,0.1982,0.2027,0.207,0.2129,0.2167,0.2167,0.2183,0.2004,0.1913,0.1765,0.1643,0.1542,0.1523,0.1353,0.1547,0.157,0.16,0.1628,0.1896,0.1268,0.1268,0.1267,0.1267,0,0.1973,0.2006,0.1996,0.2039,0.2046,0.2043,0.2141,0.2148,0.2137,0.2138,0.2009,0.1902,0.1744,0.1629,0.1455,0.144,0.1375,0.1289,0.1292,0.1433,0.1404,0.171,0.1906,0.201,0.1383,0.1382,0.1381,0,0.2097,0.2073,0.2109,0.2058,0.2042,0.2086,0.2127,0.2109,0.2099,0.2057,0.1881,0.1772,0.1632,0.1557,0.1434,0.1312,0.1281,0.1243,0.1142,0.1143,0.139,0.1542,0.1662,0.1879,0.1374,0.1375,0.1376,0,0.2164,0.2183,0.2156,0.215,0.2133,0.2093,0.2135,0.2101,0.2123,0.1969,0.1929,0.1698,0.16,0.1474,0.1323,0.1218,0.1282,0.1142,0.1133,0.1274,0.1249,0.1506,0.1536,0.1157,0.1156,0.1155,0.137,0,0.2216,0.221,0.2197,0.2186,0.2158,0.2099,0.2075,0.2069,0.2052,0.1959,0.1838,0.1625,0.143,0.1377,0.1258,0.1168,0.1193,0.1075,0.0962,0.1012,0.1109,0.1115,0.0991,0.0987,0.0984,0.0981,0,0,0.2258,0.2262,0.2267,0.2233,0.2189,0.2141,0.2105,0.2057,0.1886,0.1853,0.1819,0.1517,0.1357,0.1178,0.1178,0.109,0.1085,0.1002,0.0987,0.0989,0.099,0.1084,0.1093,0.0976,0.0974,0.0973,0.0972,0,0.2267,0.2307,0.231,0.2247,0.2156,0.2102,0.211,0.1983,0.1947,0.1824,0.1712,0.1581,0.1323,0.1173,0.1065,0.1056,0.0967,0.1016,0.1039,0.0963,0.0969,0.0974,0.1069,0.108,0.0964,0.0965,0.0965,0,0.229,0.2279,0.2279,0.2229,0.2142,0.2088,0.2026,0.1945,0.1908,0.1701,0.1601,0.1472,0.1254,0.1103,0.1027,0.0952,0.0841,0.0814,0.0827,0.0804,0.0718,0.0726,0.0733,0.0647,0.0647,0.0647,0,0,0.2298,0.2321,0.2233,0.2218,0.2194,0.2064,0.2,0.193,0.1794,0.1739,0.158,0.1408,0.127,0.1144,0.0999,0.0826,0.078,0.0786,0.0801,0.0814,0.0799,0.0717,0.0724,0.0647,0.0647,0.0647,0,0,0.2261,0.2228,0.221,0.222,0.2111,0.1941,0.189,0.1846,0.1708,0.1703,0.1503,0.1444,0.1324,0.1155,0.1181,0.0947,0.0874,0.0863,0.1057,0.1072,0.1086,0.1115,0.1025,0,0,0,0,0,0.2216,0.2245,0.2231,0.2219,0.2093,0.1966,0.1932,0.181,0.1817,0.1785,0.1637,0.1524,0.1124,0.1142,0.1083,0.107,0.0647,0.0647,0.0647,0.0861,0.088,0.0896,0,0,0,0,0,0,0.2211,0.2204,0.2226,0.2082,0.2048,0.1966,0.1905,0.1869,0.1815,0.1805,0.156,0.1515,0.1348,0.1158,0.1108,0.1101,0.1042,0.0647,0.0647,0.0647,0.0868,0.0883,0.0896,0,0,0,0,0,0.2206,0.2199,0.2067,0.2074,0.2046,0.188,0.1906,0.1876,0.1838,0.1577,0.1534,0.1758,0.1352,0.1298,0.1127,0.1128,0.1074,0.1057,0.0647,0.0647,0.0647,0.0875,0,0,0,0,0,0,0.2201,0.2136,0.2054,0.2034,0.2088,0.1879,0.1858,0.1883,0.161,0.157,0.176,0.1754,0.1353,0.1311,0.1271,0.115,0.1101,0.1083,0.1072,0.0647,0.0647,0.0647,0,0,0,0,0,0,0.2137,0.2123,0.2043,0.207,0.2052,0.1879,0.1861,0.1676,0.1605,0.1806,0.1794,0.176,0.1388,0.1321,0.1289,0.1004,0.1122,0.1104,0.1093,0.1085,0.0647,0.0647,0,0,0,0,0,0,0.2126,0.2113,0.2074,0.206,0.2044,0.1809,0.1704,0.1568,0.1685,0.1817,0.1686,0.1686,0.1398,0.1364,0.1301,0.1031,0.1011,0.1121,0.1109,0.1101,0.1096,0,0,0,0,0,0,0,0.2116,0.2274,0.2175,0.2052,0.2038,0.1849,0.1843,0.1838,0.1685,0.1685,0.1686,0.1686,0.122,0.1201,0.1182,0.1053,0,0,0.1123,0.1114,0,0,0,0,0,0,0,0,0.2272,0.2274,0.2174,0.217,0.2166,0.1848,0.1844,0.1839,0.1685,0.1685,0.1686,0.1686,0.1215,0.12,0.1184,0,0,0,0,0,0,0,0,0,0,0,0,0,0,0,0.2174,0.217,0,0.1848,0.1844,0.184,0.1685,0.1685,0.1686,0.1686,0.1211,0.1198,0.1185,0,0,0,0,0,0,0,0,0,0,0,0,0,0,0,0,0,0,0,0,0,0,0,0,0,0,0,0,0,0,0,0,0,0,0,0,0,0,0,0,0,0,0,0,0,0,0,0,0,0,0,0,0,0,0,0,0,0,0,0,0,0,0,0,0,0,0,0,0]}],[{"header":{"parameterUnit":"kt","parameterCategory":2,"dx":1,"dy":1,"la1":30.253999710083008,"la2":30.299108505249023,"lo1":-89.0895004272461,"lo2":-89.04439544677734,"nx":28,"ny":28,"refTime":"2022-10-19T21:00:00:Z","depth":"0","parameterNumber":3,"parameterNumberName":"V-component_of_CURRENTS"},"data":[-0.219,-0.2084,-0.2102,-0.1993,-0.1977,-0.188,-0.1835,-0.1746,-0.167,-0.1449,-0.1328,-0.1241,-0.1215,-0.1868,-0.2267,-0.2476,-0.2792,-0.2983,-0.306,-0.2708,-0.2714,-0.272,-0.2731,-0.2658,-0.2657,-0.3514,-0.3519,-0.3522,-0.2299,-0.2263,-0.2243,-0.2204,-0.2156,-0.2207,-0.2164,-0.2089,-0.1979,-0.189,-0.1811,-0.177,-0.1969,-0.2241,-0.2542,-0.27,-0.307,-0.2797,-0.3076,-0.3163,-0.2882,-0.29,-0.2862,-0.2862,-0.2862,-0.2862,-0.2863,-0.2863,-0.2492,-0.2447,-0.2406,-0.2387,-0.2385,-0.2349,-0.2304,-0.2307,-0.2238,-0.2131,-0.2175,-0.2083,-0.2266,-0.2488,-0.2638,-0.2874,-0.3016,-0.2889,-0.2851,-0.3095,-0.3217,-0.3046,-0.2925,-0.2925,-0.2925,-0.2925,-0.2925,0,-0.2613,-0.2606,-0.2594,-0.2569,-0.256,-0.2566,-0.2579,-0.2537,-0.2589,-0.2539,-0.2462,-0.2431,-0.2523,-0.2583,-0.2703,-0.2787,-0.2989,-0.2886,-0.2841,-0.2894,-0.3226,-0.3325,-0.3104,-0.2956,-0.2956,-0.2956,-0.2956,-0.2956,-0.2768,-0.2729,-0.276,-0.2745,-0.2773,-0.2779,-0.2781,-0.2861,-0.2837,-0.2811,-0.2746,-0.2725,-0.2703,-0.2687,-0.2809,-0.2869,-0.2929,-0.2882,-0.2959,-0.2994,-0.2962,-0.321,-0.3306,-0.2956,-0.2956,-0.2956,-0.2956,0,-0.285,-0.2896,-0.2868,-0.2938,-0.2961,-0.294,-0.2987,-0.2967,-0.3008,-0.2934,-0.2918,-0.296,-0.2934,-0.2982,-0.2907,-0.2963,-0.298,-0.2913,-0.3008,-0.3005,-0.3025,-0.3007,-0.3103,-0.3202,-0.2923,-0.2923,-0.2922,0,-0.3017,-0.2999,-0.3078,-0.3057,-0.3046,-0.3121,-0.3096,-0.3165,-0.3171,-0.3115,-0.3213,-0.3148,-0.3172,-0.3116,-0.3147,-0.3095,-0.3028,-0.3107,-0.3093,-0.3125,-0.3135,-0.3035,-0.3011,-0.3011,-0.3011,-0.3012,-0.3012,0,-0.3126,-0.3171,-0.3144,-0.3158,-0.3232,-0.3239,-0.3289,-0.3344,-0.3338,-0.3351,-0.3322,-0.3309,-0.3249,-0.3214,-0.3222,-0.3271,-0.3099,-0.3141,-0.3137,-0.3143,-0.3077,-0.3082,-0.2963,-0.3013,-0.3013,-0.3013,-0.3013,0,-0.326,-0.3288,-0.3261,-0.33,-0.3318,-0.3327,-0.3387,-0.341,-0.3442,-0.3462,-0.3452,-0.346,-0.3417,-0.3448,-0.336,-0.3415,-0.3384,-0.3357,-0.3352,-0.3305,-0.3341,-0.326,-0.3265,-0.3232,-0.3358,-0.3361,-0.3363,0,-0.3335,-0.3338,-0.3399,-0.3389,-0.3402,-0.3505,-0.3522,-0.3568,-0.3612,-0.3588,-0.3603,-0.3564,-0.3639,-0.3618,-0.3569,-0.3533,-0.3476,-0.3556,-0.336,-0.3355,-0.333,-0.3339,-0.3359,-0.3301,-0.3391,-0.3388,-0.3386,0,-0.3389,-0.3463,-0.346,-0.3468,-0.3563,-0.3571,-0.3627,-0.3661,-0.366,-0.3689,-0.3631,-0.3671,-0.3661,-0.364,-0.3656,-0.3584,-0.3532,-0.3582,-0.3574,-0.3519,-0.3357,-0.3381,-0.3365,-0.3482,-0.3477,-0.3474,-0.3409,0,-0.3453,-0.3482,-0.3494,-0.356,-0.3582,-0.3603,-0.3676,-0.3706,-0.3741,-0.3728,-0.3729,-0.3719,-0.3668,-0.3707,-0.3712,-0.3652,-0.3667,-0.3628,-0.3513,-0.3555,-0.3538,-0.3521,-0.3702,-0.3701,-0.3699,-0.3698,0,0,-0.3483,-0.3524,-0.3599,-0.3617,-0.3635,-0.3714,-0.3713,-0.3725,-0.3721,-0.3712,-0.3726,-0.3695,-0.367,-0.3633,-0.3682,-0.3693,-0.3654,-0.3613,-0.3582,-0.3571,-0.3559,-0.3541,-0.3526,-0.3696,-0.3695,-0.3695,-0.3694,0,-0.3507,-0.3596,-0.361,-0.3632,-0.369,-0.3705,-0.3724,-0.3731,-0.3717,-0.3723,-0.3707,-0.3704,-0.3667,-0.3622,-0.3601,-0.368,-0.3567,-0.3711,-0.3685,-0.3576,-0.3566,-0.3556,-0.3538,-0.3525,-0.3691,-0.3691,-0.3691,0,-0.355,-0.3605,-0.3624,-0.3689,-0.3694,-0.3707,-0.3695,-0.3707,-0.3699,-0.3643,-0.3611,-0.3614,-0.3572,-0.3566,-0.3561,-0.3513,-0.3469,-0.3512,-0.3521,-0.3458,-0.3337,-0.333,-0.3323,-0.3392,-0.3391,-0.339,0,0,-0.357,-0.3609,-0.367,-0.3698,-0.3726,-0.3711,-0.3705,-0.3691,-0.3672,-0.3648,-0.3593,-0.3563,-0.3552,-0.3518,-0.3496,-0.3478,-0.3396,-0.3475,-0.349,-0.3501,-0.3446,-0.333,-0.3324,-0.3386,-0.3386,-0.3386,0,0,-0.3548,-0.3632,-0.3661,-0.3714,-0.372,-0.3688,-0.3677,-0.3662,-0.3618,-0.3627,-0.3542,-0.3524,-0.353,-0.3478,-0.344,-0.3437,-0.3383,-0.3389,-0.3439,-0.3456,-0.347,-0.3405,-0.3316,0,0,0,0,0,-0.3609,-0.364,-0.3669,-0.3686,-0.3712,-0.3703,-0.3693,-0.3647,-0.3638,-0.3608,-0.3589,-0.3501,-0.3455,-0.3418,-0.3399,-0.3395,-0.3335,-0.3344,-0.3353,-0.3417,-0.3435,-0.3451,0,0,0,0,0,0,-0.3616,-0.3638,-0.3667,-0.3657,-0.3664,-0.3701,-0.366,-0.3644,-0.3636,-0.3625,-0.3515,-0.3497,-0.3427,-0.3419,-0.3404,-0.3402,-0.3321,-0.3338,-0.3346,-0.3353,-0.3423,-0.3438,-0.3451,0,0,0,0,0,-0.3622,-0.364,-0.3712,-0.3651,-0.3657,-0.3621,-0.3657,-0.3643,-0.3606,-0.3538,-0.3517,-0.3581,-0.3429,-0.3411,-0.3409,-0.3412,-0.3331,-0.3326,-0.3343,-0.335,-0.3355,-0.3431,0,0,0,0,0,0,-0.3626,-0.3568,-0.3709,-0.3707,-0.3649,-0.3612,-0.3609,-0.3643,-0.3514,-0.35,-0.36,-0.3593,-0.3431,-0.3417,-0.3403,-0.3421,-0.3339,-0.3334,-0.333,-0.3348,-0.3353,-0.3357,0,0,0,0,0,0,-0.356,-0.3566,-0.3706,-0.3706,-0.3701,-0.3605,-0.3604,-0.3555,-0.3511,-0.3575,-0.357,-0.3599,-0.3462,-0.342,-0.341,-0.3332,-0.3345,-0.334,-0.3336,-0.3334,-0.3352,-0.3356,0,0,0,0,0,0,-0.356,-0.3565,-0.3704,-0.3701,-0.3696,-0.3644,-0.3554,-0.3574,-0.3546,-0.3578,-0.3543,-0.3542,-0.3468,-0.3455,-0.3415,-0.3342,-0.3335,-0.3345,-0.3341,-0.3339,-0.3337,0,0,0,0,0,0,0,-0.356,-0.356,-0.3755,-0.3697,-0.3692,-0.369,-0.3686,-0.3683,-0.3545,-0.3544,-0.3543,-0.3542,-0.3374,-0.3369,-0.3363,-0.335,0,0,-0.3345,-0.3343,0,0,0,0,0,0,0,0,-0.3555,-0.3559,-0.3755,-0.3756,-0.3757,-0.369,-0.3687,-0.3683,-0.3545,-0.3544,-0.3543,-0.3543,-0.3373,-0.3368,-0.3364,0,0,0,0,0,0,0,0,0,0,0,0,0,0,0,-0.3755,-0.3756,0,-0.3689,-0.3687,-0.3684,-0.3545,-0.3544,-0.3544,-0.3543,-0.3372,-0.3368,-0.3364,0,0,0,0,0,0,0,0,0,0,0,0,0,0,0,0,0,0,0,0,0,0,0,0,0,0,0,0,0,0,0,0,0,0,0,0,0,0,0,0,0,0,0,0,0,0,0,0,0,0,0,0,0,0,0,0,0,0,0,0,0,0,0,0,0,0,0,0,0]}]],[[{"header":{"parameterUnit":"kt","parameterCategory":2,"dx":1,"dy":1,"la1":30.253999710083008,"la2":30.299108505249023,"lo1":-89.0895004272461,"lo2":-89.04439544677734,"nx":28,"ny":28,"refTime":"2022-10-19T21:00:00:Z","depth":"2","parameterNumber":2,"parameterNumberName":"U-component_of_CURRENTS"},"data":[-0.2243,-0.2084,-0.1999,-0.1792,-0.1706,-0.1549,-0.1484,-0.1354,-0.1179,-0.0925,-0.064,-0.0396,-0.0035,0.0169,0.0352,0.0539,0.0218,0.0448,0.0525,0.0107,0.0056,0.0049,-0.0058,0,0,0,0,0,-0.2309,-0.2181,-0.2056,-0.1915,-0.1811,-0.1787,-0.1678,-0.1593,-0.1455,-0.1214,-0.1035,-0.0689,-0.0251,0.002,0.0485,0.0638,0.0399,0.0509,0.0196,0.0153,0.0111,0.0058,0.0559,0.0557,0.0554,0.0552,0,0,-0.2394,-0.2297,-0.2176,-0.2069,-0.1976,-0.1878,-0.1797,-0.1727,-0.1606,-0.143,-0.1347,-0.1029,-0.0746,-0.0038,0.0116,0.0302,0.0288,0.0208,0.0173,0.0135,0.0107,0.0116,0.0609,0.0608,0.0608,0.0607,0.0606,0,-0.2464,-0.2415,-0.2315,-0.22,-0.2121,-0.2015,-0.1941,-0.1892,-0.1823,-0.1724,-0.1549,-0.1403,-0.0927,-0.0546,-0.012,-0.0033,-0.0285,-0.0088,-0.0436,-0.0581,-0.0589,-0.0614,-0.0669,-0.0226,-0.0232,-0.0236,-0.0239,-0.0242,-0.2564,-0.2492,-0.2363,-0.2302,-0.2262,-0.2173,-0.21,-0.2059,-0.2,-0.185,-0.1779,-0.1543,-0.1381,-0.0921,-0.069,-0.0406,-0.0642,-0.0238,-0.0456,-0.0844,-0.0857,-0.0903,-0.0946,-0.0304,-0.0296,-0.029,-0.0284,0,-0.2612,-0.256,-0.2443,-0.2348,-0.2323,-0.2252,-0.2166,-0.2092,-0.2068,-0.1953,-0.194,-0.1863,-0.163,-0.152,-0.1309,-0.1244,-0.1025,-0.091,-0.0885,-0.0845,-0.0986,-0.1016,-0.0542,-0.053,-0.052,-0.0512,-0.0505,0,-0.2674,-0.2593,-0.2518,-0.2461,-0.2354,-0.233,-0.223,-0.2206,-0.2143,-0.2057,-0.2106,-0.2022,-0.2004,-0.1827,-0.1783,-0.1476,-0.1536,-0.1405,-0.1365,-0.1378,-0.1361,-0.1812,-0.1838,-0.1612,-0.1615,-0.1618,-0.162,0,-0.274,-0.2646,-0.2543,-0.2514,-0.242,-0.2383,-0.2343,-0.2296,-0.2244,-0.2208,-0.2171,-0.2133,-0.2093,-0.2007,-0.192,-0.2043,-0.1659,-0.1821,-0.1524,-0.1508,-0.1389,-0.1369,-0.1623,-0.1624,-0.1625,-0.1626,-0.1627,0,-0.2791,-0.2731,-0.2621,-0.2528,-0.2514,-0.2462,-0.2384,-0.2334,-0.2288,-0.2291,-0.2294,-0.2323,-0.2261,-0.2353,-0.2173,-0.2284,-0.2205,-0.2155,-0.2141,-0.1903,-0.1967,-0.1655,-0.1382,-0.2019,-0.2024,-0.2028,-0.2032,0,-0.2856,-0.2759,-0.2745,-0.2642,-0.26,-0.2611,-0.2539,-0.2513,-0.2508,-0.2451,-0.2486,-0.2453,-0.2549,-0.2568,-0.2513,-0.2454,-0.235,-0.252,-0.2265,-0.2255,-0.2079,-0.1849,-0.18,-0.1465,-0.2084,-0.2079,-0.2075,0,-0.2918,-0.2851,-0.2843,-0.28,-0.2782,-0.2765,-0.2703,-0.267,-0.2636,-0.2636,-0.2578,-0.2572,-0.2624,-0.261,-0.2662,-0.2599,-0.2434,-0.2624,-0.262,-0.2498,-0.2176,-0.1952,-0.1894,-0.2476,-0.2471,-0.2466,-0.2117,0,-0.2927,-0.2898,-0.2888,-0.2862,-0.2842,-0.2828,-0.2843,-0.2813,-0.2828,-0.2833,-0.2786,-0.2791,-0.2765,-0.2776,-0.2802,-0.2705,-0.2685,-0.2734,-0.2768,-0.268,-0.2538,-0.2505,-0.29,-0.29,-0.29,-0.2901,0,0,-0.3,-0.2976,-0.3015,-0.2988,-0.2981,-0.3038,-0.3004,-0.2991,-0.2991,-0.2978,-0.3007,-0.2944,-0.2941,-0.2887,-0.2873,-0.2869,-0.2798,-0.2892,-0.2736,-0.2718,-0.2701,-0.2562,-0.253,-0.2901,-0.2901,-0.2902,-0.2902,0,-0.3028,-0.3052,-0.3027,-0.3028,-0.3057,-0.307,-0.3072,-0.3108,-0.31,-0.3046,-0.3073,-0.3052,-0.2995,-0.2983,-0.2972,-0.2885,-0.2859,-0.2892,-0.284,-0.2744,-0.2725,-0.2709,-0.2569,-0.254,-0.2902,-0.2902,-0.2902,0,-0.3081,-0.3111,-0.3111,-0.3138,-0.3158,-0.3137,-0.3213,-0.3218,-0.3184,-0.3225,-0.315,-0.3154,-0.313,-0.3072,-0.3044,-0.3068,-0.2903,-0.3,-0.2996,-0.2956,-0.2855,-0.2835,-0.2817,-0.3053,-0.3053,-0.3054,0,0,-0.3106,-0.3099,-0.3165,-0.3161,-0.3173,-0.3214,-0.3213,-0.3237,-0.3242,-0.3228,-0.3214,-0.3191,-0.3157,-0.3141,-0.3096,-0.3043,-0.2975,-0.3021,-0.3014,-0.3008,-0.2966,-0.2864,-0.2844,-0.3057,-0.3057,-0.3057,0,0,-0.3133,-0.32,-0.3219,-0.3226,-0.324,-0.329,-0.3265,-0.3292,-0.3253,-0.3259,-0.3267,-0.3259,-0.3195,-0.3185,-0.3222,-0.3127,-0.3152,-0.3143,-0.3153,-0.3144,-0.3137,-0.3099,-0.3262,0,0,0,0,0,-0.3214,-0.3198,-0.3214,-0.3225,-0.3272,-0.3284,-0.3282,-0.3303,-0.3336,-0.3296,-0.3287,-0.3309,-0.32,-0.3233,-0.3223,-0.3204,-0.3094,-0.3087,-0.3081,-0.3078,-0.3069,-0.3061,0,0,0,0,0,0,-0.322,-0.3236,-0.3215,-0.3275,-0.3286,-0.3285,-0.3337,-0.3339,-0.3339,-0.3341,-0.3311,-0.3308,-0.3307,-0.3239,-0.323,-0.3212,-0.3265,-0.3091,-0.3086,-0.3081,-0.3075,-0.3067,-0.306,0,0,0,0,0,-0.3225,-0.3238,-0.3315,-0.3272,-0.3282,-0.3314,-0.3337,-0.334,-0.3321,-0.3329,-0.3326,-0.3341,-0.3306,-0.3298,-0.3234,-0.3216,-0.3272,-0.3268,-0.3088,-0.3083,-0.3079,-0.3071,0,0,0,0,0,0,-0.3228,-0.3206,-0.3316,-0.3318,-0.329,-0.3311,-0.3317,-0.334,-0.3307,-0.3308,-0.336,-0.3362,-0.3305,-0.3299,-0.3293,-0.3218,-0.3277,-0.3273,-0.3271,-0.3084,-0.3081,-0.3078,0,0,0,0,0,0,-0.32,-0.3207,-0.3316,-0.3337,-0.3342,-0.3308,-0.3314,-0.3274,-0.3304,-0.3335,-0.3339,-0.3361,-0.3318,-0.3299,-0.3294,-0.3229,-0.3281,-0.3278,-0.3275,-0.3274,-0.3082,-0.3079,0,0,0,0,0,0,-0.3203,-0.3209,-0.3336,-0.3339,-0.3342,-0.3357,-0.3268,-0.3306,-0.3349,-0.3333,-0.3353,-0.3355,-0.3318,-0.3313,-0.3296,-0.3232,-0.323,-0.3281,-0.3279,-0.3277,-0.3276,0,0,0,0,0,0,0,-0.3205,-0.3171,-0.3321,-0.334,-0.3343,-0.3343,-0.3341,-0.334,-0.335,-0.3351,-0.3353,-0.3355,-0.33,-0.3297,-0.3293,-0.3235,0,0,-0.3281,-0.328,0,0,0,0,0,0,0,0,-0.3168,-0.3171,-0.3321,-0.3322,-0.3324,-0.3342,-0.3342,-0.3341,-0.335,-0.3351,-0.3353,-0.3354,-0.3299,-0.3296,-0.3293,0,0,0,0,0,0,0,0,0,0,0,0,0,0,0,-0.3321,-0.3322,0,-0.3342,-0.3342,-0.3341,-0.335,-0.3351,-0.3352,-0.3353,-0.3298,-0.3296,-0.3293,0,0,0,0,0,0,0,0,0,0,0,0,0,0,0,0,0,0,0,0,0,0,0,0,0,0,0,0,0,0,0,0,0,0,0,0,0,0,0,0,0,0,0,0,0,0,0,0,0,0,0,0,0,0,0,0,0,0,0,0,0,0,0,0,0,0,0,0,0]}],[{"header":{"parameterUnit":"kt","parameterCategory":2,"dx":1,"dy":1,"la1":30.253999710083008,"la2":30.299108505249023,"lo1":-89.0895004272461,"lo2":-89.04439544677734,"nx":28,"ny":28,"refTime":"2022-10-19T21:00:00:Z","depth":"2","parameterNumber":3,"parameterNumberName":"V-component_of_CURRENTS"},"data":[0.1264,0.1232,0.1198,0.1148,0.1115,0.105,0.1036,0.0966,0.0971,0.0889,0.0879,0.0729,0.0798,0.0818,0.0933,0.1114,0.1119,0.1118,0.0905,0.1324,0.1319,0.1351,0.1582,0,0,0,0,0,0.1225,0.1193,0.116,0.1121,0.1079,0.1082,0.1083,0.1041,0.1015,0.1046,0.0977,0.0772,0.0758,0.0708,0.0789,0.0734,0.0863,0.0831,0.1165,0.117,0.1172,0.1308,0.1142,0.114,0.1137,0.1134,0,0,0.1167,0.1152,0.1118,0.109,0.1068,0.1076,0.1063,0.1085,0.1086,0.108,0.1045,0.0965,0.0927,0.0586,0.0518,0.0572,0.0621,0.0887,0.0901,0.0911,0.1024,0.097,0.079,0.0787,0.0784,0.0781,0.0779,0,0.1144,0.1117,0.1109,0.1076,0.1062,0.1075,0.1087,0.109,0.1136,0.1142,0.1146,0.1098,0.0888,0.0852,0.0593,0.0608,0.0871,0.0822,0.0627,0.1476,0.1432,0.1481,0.1497,0.1329,0.1329,0.1328,0.1328,0.1328,0.1138,0.1117,0.1105,0.11,0.1103,0.1089,0.1101,0.1136,0.1173,0.1205,0.122,0.1129,0.1101,0.0865,0.0808,0.0628,0.0795,0.0829,0.1096,0.0911,0.0951,0.0983,0.1011,0.1323,0.1324,0.1324,0.1325,0,0.1151,0.1154,0.1143,0.1162,0.1162,0.1144,0.1175,0.1194,0.1227,0.126,0.1257,0.1324,0.1223,0.1192,0.1156,0.1146,0.1058,0.1008,0.1225,0.1261,0.1039,0.1059,0.0739,0.0731,0.0724,0.0719,0.0714,0,0.1215,0.1199,0.1225,0.1213,0.1197,0.1242,0.1238,0.1282,0.133,0.1368,0.1433,0.1452,0.1508,0.1448,0.1454,0.1312,0.1376,0.1361,0.1367,0.1652,0.1661,0.1741,0.1763,0.1576,0.1579,0.1581,0.1584,0,0.1293,0.1298,0.1273,0.128,0.1333,0.1326,0.1343,0.1425,0.1465,0.1501,0.1522,0.1551,0.1568,0.1558,0.158,0.1669,0.1484,0.1658,0.1482,0.1467,0.1704,0.1714,0.1587,0.1587,0.1588,0.1589,0.159,0,0.1378,0.139,0.1357,0.14,0.1403,0.1395,0.1444,0.1471,0.1551,0.16,0.1644,0.1722,0.1734,0.183,0.1788,0.1844,0.1834,0.1858,0.185,0.1746,0.1841,0.1802,0.1663,0.174,0.1743,0.1746,0.1749,0,0.1457,0.1441,0.1487,0.1462,0.1467,0.1537,0.1558,0.1619,0.1685,0.1719,0.1821,0.1877,0.1955,0.1986,0.2003,0.2062,0.2001,0.2125,0.203,0.2023,0.1883,0.1715,0.2,0.1707,0.1784,0.178,0.1778,0,0.1532,0.1581,0.1571,0.1584,0.1635,0.1654,0.1666,0.1731,0.1758,0.1808,0.1837,0.1958,0.2003,0.2069,0.2168,0.2181,0.2053,0.2212,0.2216,0.2035,0.1922,0.1778,0.1739,0.2158,0.2156,0.2154,0.1806,0,0.1648,0.1652,0.1635,0.168,0.1702,0.1694,0.1788,0.1797,0.1854,0.1934,0.1978,0.2086,0.2176,0.2226,0.2298,0.2296,0.2238,0.2362,0.2402,0.2345,0.2196,0.2173,0.2475,0.2477,0.2479,0.2481,0,0,0.172,0.1735,0.1805,0.1807,0.1833,0.192,0.1913,0.1963,0.2048,0.208,0.2101,0.2235,0.2322,0.2398,0.2396,0.2447,0.2382,0.2422,0.2389,0.2378,0.2369,0.2223,0.22,0.2484,0.2485,0.2486,0.2486,0,0.1789,0.182,0.181,0.1846,0.1911,0.1979,0.1968,0.2065,0.2104,0.2128,0.2231,0.2281,0.2351,0.2444,0.2503,0.2467,0.2458,0.2483,0.2391,0.2406,0.2392,0.2381,0.2235,0.2212,0.2491,0.2491,0.2491,0,0.1873,0.1938,0.1943,0.2016,0.2067,0.2087,0.2186,0.22,0.2225,0.2333,0.2344,0.2406,0.2511,0.2536,0.2544,0.2575,0.2514,0.2585,0.2577,0.2537,0.2553,0.2538,0.2525,0.2686,0.2686,0.2686,0,0,0.1926,0.1936,0.2051,0.2045,0.2065,0.2172,0.2199,0.2252,0.2318,0.2333,0.2391,0.2459,0.252,0.254,0.2585,0.2593,0.2571,0.2603,0.2594,0.2586,0.2542,0.2555,0.2542,0.2686,0.2686,0.2686,0,0,0.1963,0.2083,0.2123,0.2128,0.2186,0.2316,0.2302,0.2365,0.2397,0.2392,0.2494,0.2508,0.251,0.2564,0.2558,0.2612,0.2659,0.266,0.2562,0.2552,0.2543,0.2478,0.2645,0,0,0,0,0,0.2101,0.2071,0.2105,0.2123,0.2242,0.2299,0.2315,0.2397,0.2435,0.2408,0.2471,0.2519,0.2597,0.2593,0.2602,0.2593,0.2689,0.2689,0.2688,0.2564,0.2553,0.2543,0,0,0,0,0,0,0.2109,0.2129,0.2108,0.2237,0.2266,0.2301,0.2396,0.2417,0.2438,0.2445,0.2511,0.2523,0.259,0.2593,0.26,0.259,0.2643,0.2689,0.2689,0.2688,0.256,0.2551,0.2543,0,0,0,0,0,0.2116,0.2132,0.2293,0.2238,0.2263,0.2375,0.2395,0.2414,0.2418,0.2522,0.2535,0.2473,0.2588,0.2597,0.2597,0.2586,0.2638,0.264,0.2689,0.2688,0.2688,0.2556,0,0,0,0,0,0,0.2121,0.2147,0.23,0.2312,0.2241,0.2372,0.2392,0.2411,0.2493,0.2508,0.2491,0.2496,0.2587,0.2594,0.2601,0.2581,0.2634,0.2637,0.2638,0.2689,0.2688,0.2688,0,0,0,0,0,0,0.214,0.2156,0.2306,0.2305,0.2317,0.2369,0.2387,0.2409,0.249,0.2455,0.2464,0.2492,0.2563,0.2592,0.2598,0.2631,0.2631,0.2634,0.2635,0.2637,0.2688,0.2688,0,0,0,0,0,0,0.2149,0.2163,0.2302,0.2311,0.2322,0.2459,0.2389,0.2491,0.253,0.2448,0.2532,0.2533,0.2558,0.2566,0.2595,0.2626,0.263,0.2632,0.2633,0.2634,0.2635,0,0,0,0,0,0,0,0.2156,0.2035,0.2235,0.2316,0.2326,0.2425,0.2428,0.2431,0.253,0.2531,0.2532,0.2533,0.2618,0.262,0.2623,0.2622,0,0,0.2631,0.2632,0,0,0,0,0,0,0,0,0.2031,0.2034,0.2235,0.2238,0.2241,0.2426,0.2428,0.243,0.253,0.2531,0.2532,0.2532,0.2619,0.2621,0.2623,0,0,0,0,0,0,0,0,0,0,0,0,0,0,0,0.2236,0.2238,0,0.2426,0.2428,0.243,0.253,0.2531,0.2531,0.2532,0.2619,0.2621,0.2623,0,0,0,0,0,0,0,0,0,0,0,0,0,0,0,0,0,0,0,0,0,0,0,0,0,0,0,0,0,0,0,0,0,0,0,0,0,0,0,0,0,0,0,0,0,0,0,0,0,0,0,0,0,0,0,0,0,0,0,0,0,0,0,0,0,0,0,0,0]}]],[[{"header":{"parameterUnit":"kt","parameterCategory":2,"dx":1,"dy":1,"la1":30.253999710083008,"la2":30.299108505249023,"lo1":-89.0895004272461,"lo2":-89.04439544677734,"nx":28,"ny":28,"refTime":"2022-10-19T21:00:00:Z","depth":"4","parameterNumber":2,"parameterNumberName":"U-component_of_CURRENTS"},"data":[-0.0931,-0.0905,-0.0871,-0.069,-0.0588,-0.0472,-0.0437,-0.0447,-0.0406,-0.045,-0.0425,-0.0449,-0.0409,-0.0502,-0.0378,-0.0371,-0.0637,-0.0355,-0.0351,-0.0888,-0.0927,-0.0961,-0.0956,0,0,0,0,0,-0.0975,-0.0937,-0.0887,-0.0787,-0.0705,-0.0656,-0.0595,-0.0611,-0.0628,-0.0519,-0.0648,-0.0515,-0.0467,-0.0465,-0.0394,-0.0445,-0.068,-0.0355,-0.0811,-0.0912,-0.0955,-0.0936,0,0,0,0,0,0,-0.1026,-0.1003,-0.0982,-0.0919,-0.0844,-0.0728,-0.0747,-0.0665,-0.0703,-0.0782,-0.0681,-0.0698,-0.0768,-0.0698,-0.068,-0.0685,-0.0685,-0.0776,-0.0823,-0.0864,-0.082,-0.0699,-0.0272,0,0,0,0,0,-0.1045,-0.1067,-0.1047,-0.0985,-0.0945,-0.089,-0.0866,-0.0873,-0.0949,-0.1054,-0.0964,-0.0967,-0.0846,-0.0912,-0.0922,-0.0936,-0.1345,-0.119,-0.1215,-0.1335,-0.1276,-0.127,-0.1301,-0.1115,-0.1121,-0.1124,-0.1126,0,-0.1085,-0.1079,-0.1066,-0.1031,-0.1044,-0.1064,-0.1055,-0.1194,-0.1181,-0.1262,-0.1198,-0.1234,-0.127,-0.1153,-0.1293,-0.1296,-0.1301,-0.1299,-0.1428,-0.1345,-0.1325,-0.1347,-0.1365,-0.116,-0.1158,-0.1155,-0.1152,0,-0.111,-0.1113,-0.1089,-0.1111,-0.1114,-0.113,-0.1213,-0.1228,-0.1394,-0.1406,-0.1458,-0.1596,-0.1554,-0.1694,-0.1774,-0.1751,-0.1706,-0.1604,-0.1944,-0.1929,-0.1423,-0.1428,-0.1216,-0.1204,-0.1193,-0.1184,-0.1177,0,-0.1138,-0.1128,-0.1123,-0.1129,-0.1132,-0.1201,-0.1258,-0.1355,-0.1488,-0.1493,-0.1688,-0.168,-0.1936,-0.1956,-0.2027,-0.1888,-0.2047,-0.1812,-0.1766,-0.2163,-0.2165,-0.2117,-0.2114,-0.2155,-0.2156,-0.2158,-0.2159,0,-0.1156,-0.1155,-0.1147,-0.1168,-0.1219,-0.126,-0.1313,-0.1448,-0.1506,-0.1656,-0.1727,-0.1851,-0.1917,-0.1996,-0.2071,-0.2138,-0.2116,-0.2176,-0.1857,-0.1833,-0.2123,-0.2118,-0.216,-0.216,-0.2161,-0.2161,-0.2161,0,-0.1196,-0.118,-0.1187,-0.1202,-0.1217,-0.1268,-0.1378,-0.1443,-0.1575,-0.1679,-0.1796,-0.1884,-0.1977,-0.2049,-0.2121,-0.2173,-0.2182,-0.2214,-0.2209,-0.1872,-0.183,-0.2072,-0.2106,-0.2107,-0.2107,-0.2108,-0.2108,0,-0.12,-0.1191,-0.1227,-0.1249,-0.125,-0.135,-0.1417,-0.1504,-0.1615,-0.1708,-0.1799,-0.1905,-0.1987,-0.2075,-0.2129,-0.2199,-0.2194,-0.2228,-0.2156,-0.2151,-0.1881,-0.1841,-0.2277,-0.2117,-0.2116,-0.2115,-0.2114,0,-0.121,-0.1223,-0.1235,-0.1227,-0.1327,-0.1351,-0.1436,-0.1512,-0.1566,-0.1715,-0.1788,-0.1932,-0.2001,-0.2032,-0.2095,-0.2143,-0.2191,-0.22,-0.2198,-0.2142,-0.22,-0.1888,-0.1852,-0.2274,-0.2274,-0.2275,-0.212,0,-0.1222,-0.1228,-0.1237,-0.1278,-0.1318,-0.1363,-0.1437,-0.1508,-0.1613,-0.168,-0.1801,-0.1866,-0.1954,-0.2027,-0.206,-0.214,-0.2128,-0.2145,-0.2116,-0.2156,-0.2075,-0.2072,-0.209,-0.2088,-0.2087,-0.2085,0,0,-0.1228,-0.1231,-0.1265,-0.128,-0.1318,-0.1397,-0.1424,-0.1477,-0.1582,-0.1617,-0.1673,-0.1847,-0.1895,-0.1954,-0.1999,-0.2016,-0.2019,-0.2082,-0.213,-0.2136,-0.214,-0.2068,-0.2066,-0.2083,-0.2082,-0.2081,-0.2081,0,-0.1237,-0.1257,-0.1254,-0.1294,-0.1349,-0.1394,-0.1417,-0.151,-0.1547,-0.1641,-0.1672,-0.1743,-0.1884,-0.1896,-0.1927,-0.1991,-0.2031,-0.2073,-0.2104,-0.2117,-0.2125,-0.2131,-0.2062,-0.2061,-0.2077,-0.2077,-0.2078,0,-0.1252,-0.1273,-0.1285,-0.1323,-0.1361,-0.1397,-0.1433,-0.1485,-0.1528,-0.1562,-0.1647,-0.1714,-0.1752,-0.1837,-0.1881,-0.1861,-0.199,-0.1995,-0.2002,-0.1981,-0.1991,-0.2,-0.2007,-0.1912,-0.1912,-0.1911,0,0,-0.1256,-0.1266,-0.1319,-0.1332,-0.1349,-0.1418,-0.1448,-0.1484,-0.1529,-0.1547,-0.1619,-0.1673,-0.1731,-0.1769,-0.1817,-0.1898,-0.1858,-0.198,-0.1988,-0.1994,-0.1978,-0.1989,-0.1997,-0.1911,-0.1911,-0.1911,0,0,-0.1269,-0.1317,-0.1329,-0.1339,-0.1385,-0.1452,-0.1465,-0.1513,-0.1548,-0.1556,-0.161,-0.1623,-0.1711,-0.1719,-0.1703,-0.1862,-0.182,-0.1825,-0.1888,-0.1898,-0.1906,-0.1876,-0.1753,0,0,0,0,0,-0.1317,-0.1312,-0.1323,-0.1332,-0.1393,-0.1446,-0.1457,-0.1492,-0.1526,-0.1533,-0.1561,-0.1616,-0.1701,-0.1686,-0.1709,-0.1821,-0.1906,-0.1907,-0.1908,-0.2008,-0.2018,-0.2026,0,0,0,0,0,0,-0.1321,-0.1331,-0.1324,-0.1387,-0.1403,-0.1446,-0.1461,-0.1471,-0.1523,-0.1525,-0.1604,-0.1617,-0.1638,-0.1682,-0.17,-0.1808,-0.1747,-0.1907,-0.1907,-0.1908,-0.2011,-0.2019,-0.2026,0,0,0,0,0,-0.1325,-0.1333,-0.1413,-0.1389,-0.1402,-0.1454,-0.146,-0.1468,-0.1513,-0.1567,-0.158,-0.1539,-0.1637,-0.1657,-0.1693,-0.1799,-0.1735,-0.1742,-0.1907,-0.1908,-0.1908,-0.2015,0,0,0,0,0,0,-0.1327,-0.1343,-0.1417,-0.1424,-0.138,-0.1452,-0.1461,-0.1466,-0.1552,-0.1565,-0.1501,-0.1502,-0.1637,-0.1652,-0.1667,-0.1794,-0.1725,-0.1732,-0.1736,-0.1908,-0.1908,-0.1908,0,0,0,0,0,0,-0.134,-0.1348,-0.1421,-0.1407,-0.1413,-0.145,-0.1458,-0.1529,-0.1554,-0.1481,-0.1484,-0.1501,-0.163,-0.1649,-0.1661,-0.177,-0.1717,-0.1724,-0.1728,-0.1731,-0.1908,-0.1908,0,0,0,0,0,0,-0.1344,-0.1352,-0.1405,-0.1409,-0.1414,-0.1492,-0.1517,-0.1583,-0.152,-0.1478,-0.1518,-0.1518,-0.1627,-0.1639,-0.1657,-0.1761,-0.1768,-0.1718,-0.1722,-0.1725,-0.1727,0,0,0,0,0,0,0,-0.1348,-0.1283,-0.1379,-0.1412,-0.1416,-0.1489,-0.149,-0.1492,-0.152,-0.1519,-0.1519,-0.1518,-0.1681,-0.1688,-0.1695,-0.1753,0,0,-0.1717,-0.172,0,0,0,0,0,0,0,0,-0.1282,-0.1283,-0.138,-0.1381,-0.1383,-0.1489,-0.149,-0.1491,-0.152,-0.1519,-0.1519,-0.1518,-0.1682,-0.1688,-0.1694,0,0,0,0,0,0,0,0,0,0,0,0,0,0,0,-0.138,-0.1381,0,-0.1489,-0.149,-0.1491,-0.152,-0.1519,-0.1519,-0.1518,-0.1684,-0.1689,-0.1694,0,0,0,0,0,0,0,0,0,0,0,0,0,0,0,0,0,0,0,0,0,0,0,0,0,0,0,0,0,0,0,0,0,0,0,0,0,0,0,0,0,0,0,0,0,0,0,0,0,0,0,0,0,0,0,0,0,0,0,0,0,0,0,0,0,0,0,0,0]}],[{"header":{"parameterUnit":"kt","parameterCategory":2,"dx":1,"dy":1,"la1":30.253999710083008,"la2":30.299108505249023,"lo1":-89.0895004272461,"lo2":-89.04439544677734,"nx":28,"ny":28,"refTime":"2022-10-19T21:00:00:Z","depth":"4","parameterNumber":3,"parameterNumberName":"V-component_of_CURRENTS"},"data":[-0.086,-0.0922,-0.0952,-0.1039,-0.1091,-0.1198,-0.1248,-0.1291,-0.1226,-0.1233,-0.1084,-0.1037,-0.0783,-0.0956,-0.0551,-0.0508,-0.0453,-0.0251,-0.0246,-0.0206,-0.0216,-0.0224,-0.0335,0,0,0,0,0,-0.0854,-0.0888,-0.0962,-0.1056,-0.1136,-0.1188,-0.1284,-0.1352,-0.1399,-0.128,-0.1345,-0.1117,-0.0863,-0.0785,-0.057,-0.0613,-0.0395,-0.0358,-0.0327,-0.0212,-0.0223,-0.0327,0,0,0,0,0,0,-0.0846,-0.0889,-0.0948,-0.1027,-0.1122,-0.1203,-0.1298,-0.1321,-0.1404,-0.1436,-0.1359,-0.1215,-0.115,-0.0884,-0.0656,-0.0468,-0.04,-0.0334,-0.0338,-0.0347,-0.0444,-0.0495,-0.0303,0,0,0,0,0,-0.0828,-0.0851,-0.0928,-0.1014,-0.1111,-0.1236,-0.1364,-0.1415,-0.1534,-0.1602,-0.1492,-0.1364,-0.1147,-0.0927,-0.0721,-0.0472,-0.0476,-0.0358,-0.0361,-0.039,-0.0419,-0.0404,-0.0423,-0.0264,-0.0265,-0.0266,-0.0266,0,-0.0787,-0.0828,-0.0955,-0.1008,-0.1091,-0.1247,-0.1338,-0.1517,-0.1567,-0.164,-0.1603,-0.151,-0.1427,-0.1019,-0.0866,-0.0538,-0.0487,-0.0387,-0.0419,-0.0439,-0.0416,-0.0434,-0.045,-0.0275,-0.0274,-0.0273,-0.0273,0,-0.076,-0.0818,-0.0923,-0.1066,-0.1121,-0.1218,-0.1427,-0.1509,-0.1621,-0.1663,-0.1674,-0.1654,-0.1441,-0.1282,-0.0997,-0.0861,-0.0616,-0.0514,-0.0682,-0.0657,-0.0458,-0.0471,-0.0289,-0.0286,-0.0283,-0.0281,-0.0279,0,-0.0747,-0.0832,-0.0938,-0.0995,-0.1118,-0.1222,-0.1365,-0.1453,-0.1568,-0.1608,-0.1623,-0.1594,-0.1459,-0.1309,-0.111,-0.0846,-0.0864,-0.0649,-0.0607,-0.0762,-0.0773,-0.0708,-0.0714,-0.0671,-0.0672,-0.0674,-0.0675,0,-0.0711,-0.0845,-0.0927,-0.0973,-0.1119,-0.1198,-0.1293,-0.1401,-0.148,-0.154,-0.1562,-0.1514,-0.148,-0.1304,-0.1104,-0.1107,-0.0852,-0.0844,-0.0668,-0.0663,-0.0719,-0.0722,-0.0677,-0.0677,-0.0677,-0.0678,-0.0678,0,-0.0721,-0.0783,-0.0888,-0.1029,-0.1063,-0.1145,-0.128,-0.1355,-0.143,-0.1459,-0.1474,-0.1454,-0.1396,-0.1331,-0.1141,-0.1191,-0.1049,-0.0941,-0.0932,-0.0846,-0.0823,-0.0805,-0.0812,-0.0814,-0.0816,-0.0818,-0.082,0,-0.0677,-0.0775,-0.0825,-0.0945,-0.1007,-0.1063,-0.1153,-0.1216,-0.1262,-0.1319,-0.1297,-0.1351,-0.1301,-0.1308,-0.1229,-0.1134,-0.1043,-0.1128,-0.0898,-0.089,-0.084,-0.0831,-0.1043,-0.0846,-0.0843,-0.0841,-0.0839,0,-0.0638,-0.0744,-0.0761,-0.0818,-0.0897,-0.0932,-0.1026,-0.1096,-0.1156,-0.1178,-0.1232,-0.1276,-0.1246,-0.1257,-0.1236,-0.1156,-0.1077,-0.1088,-0.1082,-0.0996,-0.0909,-0.0867,-0.0847,-0.1052,-0.105,-0.1049,-0.0857,0,-0.0637,-0.0702,-0.0729,-0.0802,-0.0844,-0.0883,-0.0927,-0.0976,-0.1003,-0.1019,-0.1092,-0.1101,-0.114,-0.1146,-0.1136,-0.113,-0.1083,-0.1073,-0.1,-0.1034,-0.0947,-0.0933,-0.1074,-0.1072,-0.1071,-0.107,0,0,-0.0586,-0.0642,-0.066,-0.0707,-0.0746,-0.0748,-0.0798,-0.0826,-0.0869,-0.0898,-0.089,-0.0983,-0.1,-0.106,-0.1074,-0.1094,-0.1028,-0.1048,-0.1035,-0.1032,-0.1029,-0.0947,-0.0935,-0.1067,-0.1067,-0.1066,-0.1066,0,-0.0567,-0.0607,-0.0648,-0.0676,-0.0708,-0.072,-0.0736,-0.0754,-0.0772,-0.0847,-0.0854,-0.0892,-0.0966,-0.0973,-0.0989,-0.1073,-0.0987,-0.1082,-0.1088,-0.1026,-0.1025,-0.1023,-0.0944,-0.0934,-0.1063,-0.1063,-0.1063,0,-0.0535,-0.0559,-0.0584,-0.0624,-0.0638,-0.0683,-0.0646,-0.0671,-0.0713,-0.0698,-0.0785,-0.0807,-0.0829,-0.0894,-0.0924,-0.0886,-0.0916,-0.0951,-0.0958,-0.0936,-0.0867,-0.0867,-0.0867,-0.086,-0.086,-0.086,0,0,-0.052,-0.0559,-0.058,-0.0619,-0.0636,-0.0639,-0.0654,-0.0649,-0.0675,-0.0689,-0.072,-0.0751,-0.08,-0.0818,-0.0861,-0.0911,-0.0845,-0.0929,-0.0938,-0.0946,-0.0929,-0.0864,-0.0864,-0.0858,-0.0858,-0.0858,0,0,-0.0498,-0.0534,-0.0544,-0.0594,-0.0609,-0.0603,-0.0632,-0.0628,-0.0666,-0.0674,-0.0686,-0.0697,-0.0781,-0.0768,-0.0746,-0.0825,-0.0782,-0.0788,-0.0837,-0.0849,-0.0858,-0.0829,-0.0703,0,0,0,0,0,-0.049,-0.0531,-0.0541,-0.0552,-0.0588,-0.0604,-0.0607,-0.061,-0.0607,-0.0623,-0.0662,-0.0641,-0.0752,-0.0734,-0.0744,-0.0775,-0.0836,-0.084,-0.0843,-0.0921,-0.0934,-0.0944,0,0,0,0,0,0,-0.0494,-0.0505,-0.0539,-0.0538,-0.0547,-0.0602,-0.0578,-0.0578,-0.0606,-0.0605,-0.0635,-0.0641,-0.0641,-0.0727,-0.0737,-0.0766,-0.0699,-0.0837,-0.0841,-0.0844,-0.0925,-0.0936,-0.0944,0,0,0,0,0,-0.0497,-0.0506,-0.0569,-0.0537,-0.0545,-0.0559,-0.0577,-0.0577,-0.0595,-0.0615,-0.062,-0.0602,-0.064,-0.0651,-0.0733,-0.0762,-0.0693,-0.0696,-0.084,-0.0842,-0.0844,-0.093,0,0,0,0,0,0,-0.0499,-0.0493,-0.057,-0.0572,-0.0534,-0.0556,-0.056,-0.0576,-0.0605,-0.061,-0.0581,-0.058,-0.064,-0.0648,-0.0656,-0.0761,-0.0687,-0.0691,-0.0693,-0.0842,-0.0844,-0.0845,0,0,0,0,0,0,-0.0488,-0.0494,-0.0571,-0.0566,-0.0568,-0.0553,-0.0557,-0.0597,-0.0606,-0.0568,-0.0568,-0.0581,-0.0649,-0.0647,-0.0653,-0.0713,-0.0683,-0.0687,-0.0689,-0.0691,-0.0843,-0.0845,0,0,0,0,0,0,-0.0491,-0.0496,-0.0565,-0.0566,-0.0567,-0.0587,-0.0589,-0.0636,-0.0577,-0.0567,-0.0576,-0.0576,-0.0649,-0.0654,-0.0651,-0.0708,-0.0712,-0.0683,-0.0686,-0.0687,-0.0688,0,0,0,0,0,0,0,-0.0493,-0.0461,-0.0565,-0.0566,-0.0567,-0.0594,-0.0594,-0.0594,-0.0577,-0.0577,-0.0576,-0.0576,-0.0663,-0.0667,-0.0671,-0.0704,0,0,-0.0683,-0.0685,0,0,0,0,0,0,0,0,-0.0459,-0.046,-0.0565,-0.0566,-0.0567,-0.0594,-0.0594,-0.0594,-0.0577,-0.0577,-0.0576,-0.0576,-0.0664,-0.0667,-0.067,0,0,0,0,0,0,0,0,0,0,0,0,0,0,0,-0.0565,-0.0566,0,-0.0594,-0.0594,-0.0594,-0.0577,-0.0577,-0.0576,-0.0576,-0.0665,-0.0667,-0.067,0,0,0,0,0,0,0,0,0,0,0,0,0,0,0,0,0,0,0,0,0,0,0,0,0,0,0,0,0,0,0,0,0,0,0,0,0,0,0,0,0,0,0,0,0,0,0,0,0,0,0,0,0,0,0,0,0,0,0,0,0,0,0,0,0,0,0,0,0]}]]]